2023/05/04 00:00:00, 0.0,10.1
2023/05/04 00:10:00, 0.0, 9.9
2023/05/04 00:20:00, 0.0, 9.9
2023/05/04 00:30:00, 0.0, 9.9
2023/05/04 00:40:00, 0.0, 9.5
2023/05/04 00:50:00, 0.0, 9.6
2023/05/04 01:00:00, 0.0, 9.3
2023/05/04 01:10:00, 0.0, 9.7
2023/05/04 01:20:00, 0.0, 9.6
2023/05/04 01:30:00, 0.0,10.0
2023/05/04 01:40:00, 0.0, 9.8
2023/05/04 01:50:00, 0.0, 9.6
2023/05/04 02:00:00, 0.0, 9.6
2023/05/04 02:10:00, 0.0, 9.6
2023/05/04 02:20:00, 0.0, 9.4
2023/05/04 02:30:00, 0.0, 9.3
2023/05/04 02:40:00, 0.0, 9.4
2023/05/04 02:50:00, 0.0, 9.2
2023/05/04 03:00:00, 0.0, 9.3
2023/05/04 03:10:00, 0.0, 9.5
2023/05/04 03:20:00, 0.0, 9.3
2023/05/04 03:30:00, 0.0, 9.3
2023/05/04 03:40:00, 0.0, 9.0
2023/05/04 03:50:00, 0.0, 8.8
2023/05/04 04:00:00, 0.0, 9.3
2023/05/04 04:10:00, 0.0, 8.6
2023/05/04 04:20:00, 0.0, 8.7
2023/05/04 04:30:00, 0.0, 8.5
2023/05/04 04:40:00, 0.0, 8.6
2023/05/04 04:50:00, 0.0, 8.6
2023/05/04 05:00:00, 0.0, 7.1
2023/05/04 05:10:00, 0.0, 8.7
2023/05/04 05:20:00, 0.0, 8.5
2023/05/04 05:30:00, 0.0, 8.3
2023/05/04 05:40:00, 0.0, 8.4
2023/05/04 05:50:00, 0.0, 8.7
2023/05/04 06:00:00, 0.0, 9.1
2023/05/04 06:10:00, 0.0, 9.3
2023/05/04 06:20:00, 0.0, 9.6
2023/05/04 06:30:00, 0.0, 9.8
2023/05/04 06:40:00, 0.0,10.6
2023/05/04 06:50:00, 0.0,11.0
2023/05/04 07:00:00, 0.0,11.5
2023/05/04 07:10:00, 0.0,11.6
2023/05/04 07:20:00, 0.0,12.1
2023/05/04 07:30:00, 0.0,12.5
2023/05/04 07:40:00, 0.0,13.7
2023/05/04 07:50:00, 0.0,14.0
2023/05/04 08:00:00, 0.0,14.5
2023/05/04 08:10:00, 0.0,15.2
2023/05/04 08:20:00, 0.0,15.8
2023/05/04 08:30:00, 0.0,16.1
2023/05/04 08:40:00, 0.0,16.7
2023/05/04 08:50:00, 0.0,16.8
2023/05/04 09:00:00, 0.0,17.4
2023/05/04 09:10:00, 0.0,17.5
2023/05/04 09:20:00, 0.0,18.0
2023/05/04 09:30:00, 0.0,18.5
2023/05/04 09:40:00, 0.0,18.3
2023/05/04 09:50:00, 0.0,18.9
2023/05/04 10:00:00, 0.0,18.7
2023/05/04 10:10:00, 0.0,18.9
2023/05/04 10:20:00, 0.0,19.6
2023/05/04 10:30:00, 0.3,20.1
2023/05/04 10:40:00, 0.4,19.9
2023/05/04 10:50:00, 0.2,20.2
2023/05/04 11:00:00, 0.0,20.4
2023/05/04 11:10:00, 0.0,20.7
2023/05/04 11:20:00, 0.0,20.6
2023/05/04 11:30:00, 0.3,20.7
2023/05/04 11:40:00, 0.7,20.4
2023/05/04 11:50:00, 0.5,20.6
2023/05/04 12:00:00, 0.5,21.2
2023/05/04 12:10:00, 0.5,20.8
2023/05/04 12:20:00, 0.5,20.6
2023/05/04 12:30:00, 0.4,20.9
2023/05/04 12:40:00, 0.2,20.6
2023/05/04 12:50:00, 0.1,21.0
2023/05/04 13:00:00, 0.0,20.6
2023/05/04 13:10:00, 0.1,20.8
2023/05/04 13:20:00, 0.1,20.5
2023/05/04 13:30:00, 0.1,20.8
2023/05/04 13:40:00, 0.2,21.1
2023/05/04 13:50:00, 0.0,20.6
2023/05/04 14:00:00, 0.1,20.8
2023/05/04 14:10:00, 0.1,21.2
2023/05/04 14:20:00, 0.1,20.7
2023/05/04 14:30:00, 0.1,20.9
2023/05/04 14:40:00, 0.1,21.4
2023/05/04 14:50:00, 0.4,21.9
2023/05/04 15:00:00, 0.5,22.3
2023/05/04 15:10:00, 0.5,23.3
2023/05/04 15:20:00, 0.3,22.7
2023/05/04 15:30:00, 0.4,23.1
2023/05/04 15:40:00, 0.1,22.8
2023/05/04 15:50:00, 0.1,23.1
2023/05/04 16:00:00, 0.1,22.4
2023/05/04 16:10:00, 0.0,22.3
2023/05/04 16:20:00, 0.0,22.8
2023/05/04 16:30:00, 0.0,22.4
2023/05/04 16:40:00, 0.0,21.3
2023/05/04 16:50:00, 0.0,19.8
2023/05/04 17:00:00, 0.0,19.5
2023/05/04 17:10:00, 0.0,19.0
2023/05/04 17:20:00, 0.0,18.6
2023/05/04 17:30:00, 0.0,18.1
2023/05/04 17:40:00, 0.0,17.8
2023/05/04 17:50:00, 0.0,17.6
2023/05/04 18:00:00, 0.0,17.5
2023/05/04 18:10:00, 0.0,17.0
2023/05/04 18:20:00, 0.0,16.7
2023/05/04 18:30:00, 0.0,16.6
2023/05/04 18:40:00, 0.0,16.3
2023/05/04 18:50:00, 0.0,15.8
2023/05/04 19:00:00, 0.0,15.7
2023/05/04 19:10:00, 0.0,15.4
2023/05/04 19:20:00, 0.0,15.2
2023/05/04 19:30:00, 0.0,14.9
2023/05/04 19:40:00, 0.0,14.9
2023/05/04 19:50:00, 0.0,14.4
2023/05/04 20:00:00, 0.0,14.0
2023/05/04 20:10:00, 0.0,14.0
2023/05/04 20:20:00, 0.0,13.3
2023/05/04 20:30:00, 0.0,13.1
2023/05/04 20:40:00, 0.0,12.8
2023/05/04 20:50:00, 0.0,12.9
2023/05/04 21:00:00, 0.0,12.7
2023/05/04 21:10:00, 0.0,12.5
2023/05/04 21:20:00, 0.0,12.3
2023/05/04 21:30:00, 0.0,12.2
2023/05/04 21:40:00, 0.0,12.4
2023/05/04 21:50:00, 0.0,11.5
2023/05/04 22:00:00, 0.0,12.0
2023/05/04 22:10:00, 0.0,12.1
2023/05/04 22:20:00, 0.0,12.2
2023/05/04 22:30:00, 0.0,12.0
2023/05/04 22:40:00, 0.0,12.0
2023/05/04 22:50:00, 0.0,11.8
2023/05/04 23:00:00, 0.0,11.7
2023/05/04 23:10:00, 0.0,12.0
2023/05/04 23:20:00, 0.0,12.2
2023/05/04 23:30:00, 0.0,12.1
2023/05/04 23:40:00, 0.0,12.0
2023/05/04 23:50:00, 0.0,12.1
